Starlink 33780

operational
NORAD ID: 63459 Int'l Des: 2025-069 Owner: SPXS Country: US Constellation: starlink
LEOCIRCULAR

Starlink 33780について

説明を読み込み中...

リアルタイム位置

3D地球を読み込み中...

次回通過

高度履歴

Altitude vs Time

uPlot chart will show altitude changes over time

軌道要素

1 63459U 25069AC 25353.72564951 .00023209 00000-0 79296-3 0 9998
2 63459 53.1584 153.7549 0001206 93.1845 266.9294 15.30213708 41056
Epoch: Dec 19, 2025 • Age: 17 hours

現在のステータス

高度 482.5 km
速度 7.62 km/s
衛星直下点 -24.43°S, 110.96°E
打ち上げ日 Apr 4, 2025
運用期間 0.7 years
タイプ internet

技術仕様

分類 Payload
質量 575.00 kg
乾燥質量 530.00 kg
総質量 575.00 kg
長さ 0.30 m
直径 4.10 m
スパン 29.00 m
形状 Box + pan
製造者 SPXS
バスタイプ Starlink V2MO
フェーズステータス In Orbit
所有者/国 SPXS/US

大規模コンステレーション

Loading constellations...